Location: Finnegan
(51.1333°N, 112.0833°W)
Time: 21:23:02
(UTC+00:00)

Envisat - Pass Details

Date: 02 December 2021
Orbit: 764 x 766 km, 98.2° (Epoch: 26 January)

Event Time Altitude Azimuth Distance (km) Brightness Sun altitude
Rises 13:24:48 0° 10° (N) 3,248 6.2 -15.9°
Reaches altitude 10° 13:27:12 10° 4° (N) 2,317 5.4 -15.6°
Maximum altitude 13:32:01 44° 293° (WNW) 1,059 3.3 -14.8°
Drops below altitude 10° 13:36:48 10° 223° (SW) 2,301 5.2 -14.1°
Sets 13:39:10 0° 217° (SW) 3,223 6.0 -13.8°
